TimeCST,TemperatureF,Dew PointF,Humidity,Sea Level PressureIn,VisibilityMPH,Wind Direction,Wind SpeedMPH,Gust SpeedMPH,PrecipitationIn,Events,Conditions,WindDirDegrees,DateUTC
12:53 AM,12.9,10.0,88,30.36,10.0,WNW,5.8,-,N/A,,Clear,290,2013-01-06 06:53:00
1:53 AM,12.0,9.0,88,30.34,10.0,NW,6.9,-,N/A,,Clear,310,2013-01-06 07:53:00
2:53 AM,10.9,8.1,88,30.35,10.0,WNW,5.8,-,N/A,,Clear,300,2013-01-06 08:53:00
3:53 AM,12.0,8.1,84,30.36,10.0,West,6.9,-,N/A,,Clear,270,2013-01-06 09:53:00
4:53 AM,9.0,6.1,88,30.37,10.0,WNW,6.9,-,N/A,,Clear,300,2013-01-06 10:53:00
5:53 AM,9.0,6.1,88,30.38,10.0,NW,6.9,-,N/A,,Clear,320,2013-01-06 11:53:00
6:53 AM,8.1,3.9,83,30.40,10.0,WNW,4.6,-,N/A,,Clear,290,2013-01-06 12:53:00
7:53 AM,7.0,5.0,92,30.41,10.0,NW,3.5,-,N/A,,Clear,320,2013-01-06 13:53:00
8:53 AM,9.0,5.0,84,30.41,10.0,Calm,Calm,-,N/A,,Clear,0,2013-01-06 14:53:00
9:53 AM,19.0,12.0,74,30.38,10.0,Calm,Calm,-,N/A,,Clear,0,2013-01-06 15:53:00
10:53 AM,25.0,15.1,66,30.36,10.0,Calm,Calm,-,N/A,,Clear,0,2013-01-06 16:53:00
11:53 AM,30.0,16.0,56,30.32,10.0,SW,4.6,-,N/A,,Clear,220,2013-01-06 17:53:00
12:53 PM,35.1,19.0,52,30.26,10.0,South,6.9,-,N/A,,Clear,180,2013-01-06 18:53:00
1:53 PM,39.9,23.0,51,30.23,10.0,SW,8.1,-,N/A,,Clear,220,2013-01-06 19:53:00
2:53 PM,39.9,24.1,53,30.19,10.0,South,8.1,-,N/A,,Clear,190,2013-01-06 20:53:00
3:53 PM,39.9,24.1,53,30.17,10.0,South,10.4,-,N/A,,Clear,190,2013-01-06 21:53:00
4:53 PM,37.9,25.0,60,30.16,10.0,South,6.9,-,N/A,,Clear,180,2013-01-06 22:53:00
5:53 PM,30.9,21.9,69,30.15,10.0,SSE,5.8,-,N/A,,Clear,160,2013-01-06 23:53:00
6:53 PM,27.0,21.0,78,30.14,10.0,SE,6.9,-,N/A,,Clear,140,2013-01-07 00:53:00
7:53 PM,21.9,18.0,85,30.14,10.0,ESE,5.8,-,N/A,,Clear,120,2013-01-07 01:53:00
9:53 PM,25.0,19.9,81,30.06,10.0,SSE,9.2,-,N/A,,Clear,160,2013-01-07 03:53:00
10:53 PM,28.9,23.0,78,30.03,10.0,South,6.9,17.3,N/A,,Clear,170,2013-01-07 04:53:00
11:53 PM,27.0,21.0,78,30.00,10.0,South,12.7,-,N/A,,Clear,180,2013-01-07 05:53:00